{"data":{"norad_id":81317,"intl_designator":"","name":"UNKNOWN","alt_names":[],"object_type":"UNKNOWN","status":"UNKNOWN","operator":null,"country":null,"launch_date":null,"launch_site_code":null,"launch_vehicle":null,"mission":null,"orbit_class":"UNKNOWN","rcs_meters":null,"size_class":null,"mass_kg":null,"dimensions":null,"purposes":[],"wikipedia_slug":null,"has_3d_model":false,"image_url":null,"decayed_at":null,"tle_current":{"epoch":"2026-09-14T09:24:07.373664Z","epoch_age_seconds":542295,"freshness":"STALE","line1":"1 81317U          26257.39175201  .00000107  00000+0  28408-3 0  9992","line2":"2 81317  67.1359 289.5756 0216386 204.5125 171.2709 13.38126646625516","mean_motion":13.38126646,"eccentricity":0.0216386,"inclination_deg":67.1359,"raan_deg":289.5756,"arg_perigee_deg":204.5125,"mean_anomaly_deg":171.2709,"bstar":0.00028408,"rev_number":62551,"period_min":107.61313245682,"perigee_km":954.09737233479,"apogee_km":1278.4341392784,"semimajor_km":7494.4027558066,"source":"CELESTRAK","updated_at":"2026-09-20T09:00:32.385620Z"}}}